WRWO2: Deep Fork R., Warwick, OK

Data processed at Wed May 22 2019 23:50


All information presented herein is the property of the government of the United States of America and may be revised or deleted at any time without prior notice.
Dissemination of this information without the expressed written consent of the Public Affairs Office, Tulsa District U.S. Army Corps of Engineers is strictly prohibited.
These data are gathered electronically and, as presented, have not undergone any form of quality control. These data are not guaranteed to be valid or correct.
Go to home page.
Go to station list.
Go to home page.

Upstream stations:

Downstream station:
Previous Day
Next Day
Current Day
    
SHEF ID:       WRWO2     Deep Fork at Warwick, OK
STATION TYPE:  
Regulating: Stage =    19.00, Flow =     6819

                STAGE  RIV-FLOW  BAT-LOAD
                   ft       cfs      volt
              Ccp-Rev   Ccp-Rev   Ccp-Rev
(US/Central)
05/22 00:00     25.31     21269     12.65
05/22 01:00     24.85     17647     12.65
05/22 02:00     24.23     14870     12.65
05/22 03:00     23.39     12553     12.65
05/22 04:00     22.31     10582     12.65
05/22 05:00     21.10      8911     12.65
05/22 06:00     19.74      7413     12.60
05/22 07:00     18.53      6453     12.60
05/22 08:00     17.55      5718     12.60
05/22 09:00     16.71      5112     12.65
05/22 10:00     15.96      4656     13.18
05/22 11:00     15.30      4292     13.71
05/22 12:00     14.75      3997     13.59
05/22 13:00     14.20      3704     13.42
05/22 14:00     13.63      3410     13.48
05/22 15:00     13.19      3189     13.30
05/22 16:00     12.90      3040     13.30
05/22 17:00     12.59      2881     13.30
05/22 18:00     12.24      2705     13.24
05/22 19:00     11.97      2573     13.12
05/22 20:00     11.71      2448     13.07
05/22 21:00     11.57      2382     12.83
05/22 22:00     11.29      2251     12.71
05/22 23:00     11.14      2181     12.71